Resolute,

6:42 AM CDT on September 24, 2017 (GMT -0500)
Resolute

Weather History for CYRB - October, 2013

Change the Weather History Date:

Thursday, October 3, 2013

  Actual Average Record
Temperature  
Mean Temperature 10 °F -  
Max Temperature 13 °F 8 °F 28 °F (1998)
Min Temperature 8 °F -3 °F 5 °F (1996)
Degree Days  
Heating Degree Days 54    
Moisture  
Dew Point 8 °F    
Average Humidity 85    
Maximum Humidity 92    
Minimum Humidity 76    
Precipitation  
Precipitation 0.00 in 0.02 in - ()
Sea Level Pressure  
Sea Level Pressure 30.31 in    
Wind  
Wind Speed 14 mph ()    
Max Wind Speed 22 mph    
Max Gust Speed -    
Visibility 14.4 miles    
Events Snow    
Averages and records for this station are not official NWS values.
T = Trace of Precipitation, MM = Missing Value Source: Averaged Metar Reports

Daily Weather History Graph

Daily Weather History Graph

Search for Another Location

Airport or City:

Trip Planner

Search our weather history database for the weather conditions in past years. The results will help you decide how hot, cold, wet, or windy it might be!

Date:

Astronomy

Oct. 03, 2013 Rise Set
Actual Time 7:57 AM CDT 6:17 PM CDT
Civil Twilight 6:38 AM CDT 7:36 PM CDT
Nautical Twilight 5:01 AM CDT 9:11 PM CDT
Astronomical Twilight 2:43 AM CDT 11:22 PM CDT
Moon 5:53 AM CDT (10/3) 5:42 PM CDT (10/3)
Length of Visible Light 12h 58m
Length of Day
10h 20m
Waning Crescent, 2% of the Moon is Illuminated
Oct 3
Waning Crescent
Oct 4
New
Oct 11
First Quarter
Oct 18
Full
Oct 26
Last Quarter

Hourly Weather History & Observations

Time (CDT) Temp. Windchill Dew Point Humidity Pressure Visibility Wind Dir Wind Speed Gust Speed Precip Events Conditions
12:00 AM 10.4 °F -8.6 °F 6.8 °F 85% 30.27 in 15.0 mi North 20.7 mph - N/A Snow Low Drifting Snow
12:45 AM - - - N/A% - 15.0 mi NW 20.7 mph - N/A   Unknown
1:00 AM 11 °F - 8 °F 81% 30.27 in 10 mi NNW 18.4 mph - - Snow Light Snow
1:00 AM 10.4 °F -7.7 °F 8.6 °F 92% 30.27 in 10.0 mi NNW 18.4 mph - N/A Snow Light Snow
2:00 AM 10.4 °F -6.0 °F 6.8 °F 85% 30.28 in 15.0 mi North 15.0 mph - N/A Snow Light Snow
3:00 AM 10.4 °F -5.4 °F 6.8 °F 85% 30.29 in 10.0 mi North 13.8 mph - N/A Snow Light Snow
3:11 AM - - - N/A% - 15.0 mi NNW 11.5 mph - N/A   Partly Cloudy
4:00 AM 8.6 °F -7.0 °F 6.8 °F 92% 30.30 in 15.0 mi NNW 12.7 mph - N/A   Partly Cloudy
5:00 AM 8.6 °F -11.4 °F 5.0 °F 85% 30.30 in 15.0 mi NNW 21.9 mph - N/A   Partly Cloudy
6:00 AM 10.4 °F -8.2 °F 6.8 °F 85% 30.30 in 15.0 mi North 19.6 mph - N/A Snow Low Drifting Snow
6:14 AM - - - N/A% - 15.0 mi North 18.4 mph - N/A   Unknown
7:00 AM 13 °F - 10 °F 82% 30.31 in 15 mi NNW 15.0 mph - - Snow Snow
7:00 AM 14.0 °F -1.4 °F 10.4 °F 86% 30.31 in 15.0 mi NNW 15.0 mph - N/A   Overcast
7:35 AM - - - N/A% - 15.0 mi NNW 12.7 mph - N/A   Mostly Cloudy
8:00 AM 14.0 °F -1.4 °F 10.4 °F 86% 30.31 in 15.0 mi NNW 15.0 mph - N/A   Scattered Clouds
9:00 AM 10.4 °F -6.0 °F 6.8 °F 85% 30.32 in 15.0 mi NNW 15.0 mph - N/A   Partly Cloudy
9:35 AM - - - N/A% - 15.0 mi North 12.7 mph - N/A Snow Light Snow Grains
10:00 AM 12.2 °F -3.7 °F 8.6 °F 85% 30.32 in 15.0 mi North 15.0 mph - N/A Snow Light Snow Grains
10:40 AM - - - N/A% - 12.0 mi North 17.3 mph - N/A   Partly Cloudy
11:00 AM 10.4 °F -6.0 °F 6.8 °F 85% 30.32 in 12.0 mi North 15.0 mph - N/A   Partly Cloudy
12:00 PM 10.4 °F -7.7 °F 6.8 °F 85% 30.32 in 15.0 mi North 18.4 mph - N/A   Partly Cloudy
1:00 PM 11 °F - 8 °F 81% 30.32 in 15 mi NNW 11.5 mph - -   Partly Cloudy
1:00 PM 10.4 °F -4.1 °F 8.6 °F 92% 30.32 in 15.0 mi NNW 11.5 mph - N/A   Partly Cloudy
2:00 PM 12.2 °F -2.5 °F 8.6 °F 85% 30.33 in 15.0 mi NW 12.7 mph - N/A   Partly Cloudy
3:00 PM 12.2 °F 0.7 °F 8.6 °F 85% 30.33 in 15.0 mi NNW 8.1 mph - N/A   Partly Cloudy
4:00 PM 12.2 °F 0.7 °F 8.6 °F 85% 30.33 in 15.0 mi North 8.1 mph - N/A   Partly Cloudy
5:00 PM 12.2 °F -1.8 °F 8.6 °F 85% 30.33 in 15.0 mi NW 11.5 mph - N/A   Partly Cloudy
6:00 PM 12.2 °F -4.3 °F 6.8 °F 79% 30.32 in 15.0 mi NW 16.1 mph - N/A   Partly Cloudy
7:00 PM 10 °F - 6 °F 76% 30.33 in 15 mi NNW 12.7 mph - -   Scattered Clouds
7:00 PM 10.4 °F -4.8 °F 6.8 °F 85% 30.33 in 15.0 mi NNW 12.7 mph - N/A   Partly Cloudy
8:00 PM 8.6 °F -6.3 °F 5.0 °F 85% 30.32 in 15.0 mi NNW 11.5 mph - N/A   Partly Cloudy
9:00 PM 12.2 °F -4.8 °F 8.6 °F 85% 30.32 in 15.0 mi NW 17.3 mph - N/A   Partly Cloudy
10:00 PM 10.4 °F -5.4 °F 6.8 °F 85% 30.32 in 15.0 mi NW 13.8 mph - N/A   Partly Cloudy